This is the latest recevied weather packets stored in our database for station/object N4MGC. If no packets are shown the sender has not sent any weather packets the latest 10 day(s).
| Time | Temp. | Humidity | Pressure | Rain* | Wind** | Luminosity | Snow |
|---|---|---|---|---|---|---|---|
| 1777122332 | 17.78° C | 99% | 1009.9 hPa | 0 mm | - | 80 W/m² | - |
| 1777122029 | 17.78° C | 99% | 1009.8 hPa | 0 mm | - | 69 W/m² | - |
| 1777121725 | 17.78° C | 99% | 1009.7 hPa | 0 mm | - | 59 W/m² | - |
| 1777121423 | 17.78° C | 99% | 1009.7 hPa | 1.27 mm | - | 58 W/m² | - |
| 1777121122 | 17.22° C | 99% | 1009.9 hPa | 1.27 mm | - | 54 W/m² | - |
| 1777120820 | 17.22° C | 99% | 1009.7 hPa | 1.78 mm | - | 41 W/m² | - |
| 1777120515 | 17.22° C | 99% | 1009.9 hPa | 1.78 mm | - | 27 W/m² | - |
| 1777120210 | 17.22° C | 99% | 1009.8 hPa | 0 mm | - | 19 W/m² | - |
| 1777119906 | 17.22° C | 99% | 1009.8 hPa | 0 mm | - | 14 W/m² | - |
| 1777119603 | 17.22° C | 99% | 1009.9 hPa | 1.27 mm | - | 10 W/m² | - |
| 1777119299 | 17.22° C | 99% | 1010 hPa | 1.27 mm | - | 7 W/m² | - |
| 1777118993 | 17.22° C | 99% | 1010.1 hPa | 0 mm | - | 5 W/m² | - |
| 1777118689 | 17.22° C | 99% | 1010 hPa | 0 mm | - | 4 W/m² | - |
| 1777118384 | 17.22° C | 99% | 1010 hPa | 0 mm | - | 3 W/m² | - |
| 1777118082 | 17.22° C | 99% | 1010.1 hPa | 0 mm | - | 2 W/m² | - |
| 1777117778 | 17.22° C | 99% | 1010 hPa | 0 mm | - | 3 W/m² | - |
| 1777117475 | 17.22° C | 99% | 1009.7 hPa | 0 mm | - | 2 W/m² | - |
| 1777117172 | 17.22° C | 99% | 1009.6 hPa | 0 mm | - | 1 W/m² | - |
| 1777116867 | 17.22° C | 99% | 1009.9 hPa | 0 mm | - | 0 W/m² | - |
| 1777116563 | 17.22° C | 99% | 1009.7 hPa | 0 mm | - | 0 W/m² | - |
| 1777116260 | 17.22° C | 99% | 1009.7 hPa | 0 mm | - | 0 W/m² | - |
| 1777115955 | 17.22° C | 99% | 1009.7 hPa | 0 mm | - | 0 W/m² | - |
| 1777115650 | 17.22° C | 99% | 1009.7 hPa | 0 mm | - | 0 W/m² | - |
| 1777115346 | 17.78° C | 99% | 1009.7 hPa | 0 mm | - | 0 W/m² | - |
| 1777115043 | 17.78° C | 99% | 1009.4 hPa | 0 mm | - | 0 W/m² | - |
* Rain latest hour (hover to see other rain measurements)
** Current wind speed in m/s (hover to see current wind gust speed)